#timestamp,LO_Frequency,Hit,StdDev 
1625360415.7,286046995.4,N
1625360435.5,286046995.4,N
1625360455.4,286046997.6,N
1625360475.2,286046994.9,N
1625360495.0,286046996.4,N
1625360495.9,286046996.4,N
1625360515.8,286046993.7,N
1625360535.6,286046993.9,N
1625360555.4,286046993.9,N
1625360575.3,286046993.6,N
1625360595.1,286046993.8,N
1625360615.9,286046991.8,Y
1625360635.7,286046995.5,P
1625360655.5,286046995.9,P
1625360675.4,286046993.8,P
1625360695.2,286046993.6,Y
1625360715.0,286046999.4,P
1625360715.9,286046999.4,N
1625360735.8,286046996.5,N
1625360755.6,286046999.6,N
1625360775.5,286046998.8,N
1625360795.3,286046999.4,N
1625360815.1,286046998.7,N
1625360835.9,286046998.3,N
1625360855.7,286046998.3,N
1625360875.6,286046999.3,N
1625360895.4,286046999.4,N
1625360915.2,286046996.8,N
1625360935.1,286046997.9,N
1625360936.0,286046997.9,N
1625360955.8,286046995.7,Y
1625360975.7,286046996.8,P
1625360995.5,286046997.1,P
1625361015.3,286046999.2,N
1625361035.2,286046996.7,Y
1625361055.0,286047000.4,P
1625361055.9,286047000.4,N
1625361075.8,286047000.6,N
1625361095.6,286047000.9,N
1625361115.4,286046999.9,N
1625361135.3,286046998.4,N
1625361155.1,286046998.8,N
1625361175.8,286046998.4,N
1625361195.7,286047000.7,N
1625361215.5,286047000.3,N
1625361235.4,286047000.6,N
1625361255.2,286047001.0,N
1625361275.0,286047000.6,N
1625361275.9,286047000.6,N
1625361295.8,286047000.7,N
1625361315.6,286046998.5,N
1625361335.4,286046999.3,N
1625361355.3,286046998.4,N
1625361375.1,286046998.7,N
1625361395.9,286046998.8,N
1625361415.7,286046998.9,N
1625361435.5,286046998.5,N
1625361455.4,286046998.2,N
1625361475.2,286046998.1,N
1625361495.1,286046998.6,N
1625361496.0,286046998.6,N
1625361515.8,286046998.1,N
1625361535.6,286046998.1,N
1625361555.5,286047000.6,N
1625361575.3,286046998.6,N
1625361595.2,286047001.2,N
1625361615.9,286047000.5,N
1625361635.7,286047000.8,N
1625361655.6,286047000.9,N
1625361675.4,286047000.3,N
1625361695.3,286047000.2,N
1625361715.1,286047001.0,N
1625361716.0,286047001.0,N
1625361735.8,286046998.2,N
1625361785.7,286046999.9,E
1625361795.6,286047000.3,N
1625361815.5,286047002.6,P
1625361835.3,286047001.6,N
1625361855.1,286047001.8,N
1625361875.9,286047004.3,Y
1625361895.7,286047001.7,P
1625361915.5,286047002.1,P
1625361935.4,286047002.1,P
1625361955.2,286047002.1,Y
1625361975.1,286047000.6,P
1625361976.0,286047000.6,N
1625361995.8,286047000.9,N
1625362015.6,286047001.1,N
1625362035.5,286046998.1,Y
1625362055.3,286046998.7,P
1625362075.2,286046998.5,N
1625362095.9,286046998.9,N
1625362115.7,286046999.5,N
1625362135.6,286046998.8,N
1625362155.4,286046996.6,Y
1625362175.2,286046999.1,P
1625362195.1,286046999.0,P
1625362196.0,286046999.0,P
1625362215.8,286046998.3,Y
1625362235.7,286047000.7,P
1625362255.5,286047000.4,N
1625362275.3,286046998.6,N
1625362295.2,286046999.1,N
1625362315.0,286047000.6,N
1625362315.9,286047000.6,N
1625362335.8,286047002.7,Y
1625362355.6,286047002.8,P
1625362375.4,286047002.8,N
1625362395.3,286047002.7,N
1625362415.1,286047000.1,N
1625362416.0,286047000.1,N
1625362435.8,286047002.3,N
1625362455.7,286047000.5,N
1625362475.5,286047000.1,N
1625362495.3,286046999.7,N
1625362515.2,286047001.1,N
1625362535.0,286047000.8,N
1625362535.9,286047000.8,N
1625362555.8,286047001.2,N
1625362575.6,286047000.4,N
1625362595.4,286046999.9,N
1625362615.3,286047000.3,N
1625362635.1,286047000.9,N
1625362655.8,286047000.7,N
1625362675.7,286047000.1,N
1625362695.5,286047001.5,N
1625362715.4,286047000.0,N
1625362735.2,286047002.8,N
1625362755.0,286046999.8,N
1625362755.9,286046999.8,N
1625362775.8,286047001.1,N
1625362795.6,286047000.7,N
1625362815.5,286046998.6,N
1625362835.3,286047000.5,N
1625362855.1,286046998.4,N
1625362875.9,286046998.3,N
1625362895.7,286046998.3,N
1625362915.5,286046998.2,N
1625362935.4,286046998.1,N
1625362955.2,286046999.7,N
1625362975.1,286047002.3,N
1625362976.0,286047002.3,N
1625362995.8,286047001.3,N
1625363015.6,286047004.0,Y
1625363035.5,286047004.0,P
1625363055.3,286047003.4,N
1625363075.1,286047005.2,P
1625363095.9,286047005.5,N
1625363115.7,286047006.5,Y
1625363135.6,286047005.8,P
1625363155.4,286047005.6,P
1625363175.2,286047006.0,P
1625363195.1,286047005.4,Y
1625363196.0,286047005.4,P
1625363215.8,286047000.4,P
1625363235.7,286047002.5,N
1625363255.5,286046999.7,N
1625363275.3,286047000.9,N
1625363295.2,286047001.9,N
1625363315.0,286047002.4,N
1625363315.9,286047002.4,N
1625363335.7,286046999.8,N
1625363355.6,286046999.8,N
1625363375.4,286046999.9,N
1625363395.3,286047002.4,N
1625363415.1,286047001.9,N
1625363416.0,286047001.9,N
1625363435.8,286047002.5,N
1625363455.7,286046999.8,N
1625363475.5,286047002.1,N
1625363495.3,286047001.5,N
1625363515.2,286046999.8,N
1625363535.0,286047001.9,N
1625363535.9,286047001.9,N
1625363555.8,286047002.1,N
1625363575.6,286047002.7,N
1625363595.4,286047002.3,N
1625363615.3,286047000.0,N
1625363635.1,286047002.2,N
1625363655.8,286047000.2,N
1625363675.7,286047000.9,N
1625363695.5,286046999.8,N
1625363715.4,286047000.8,N
1625363735.2,286046998.9,N
1625363755.0,286046999.2,N
1625363755.9,286046999.2,N
1625363775.8,286046999.5,N
1625363795.6,286046997.6,N
1625363815.4,286046997.3,N
1625363835.3,286046995.0,Y
1625363855.1,286046998.0,P
1625363875.9,286046996.1,N
1625363895.7,286046995.6,N
1625363915.5,286046995.7,N
1625363935.4,286046995.7,N
1625363955.2,286046994.6,N
1625363975.0,286046994.4,N
1625363975.9,286046994.4,N
1625363995.8,286046992.5,Y
